CANX-2

Last updated on Tue Jul 01 2025 00:03:44 GMT+0000 (Coordinated Universal Time)

1 32790U 08021H 25181.49073586 .00001603 00000+0 12749-3 0 9996 2 32790 97.8193 151.4082 0013088 135.2197 225.0086 15.01831415931958
UTC large
Height (km)
Speed (km/s)
/
Latitude / Longitude
Inclination (degrees)
Orbital Period (minutes)
Azimuth
Elevation
Range (km)
Doppler Factor

Next 0 passes for location: London (51.5072 / 0.1276)

Sorry there are no passes over London.